contact:dominique.lefevre@mio.osupytheas.fr, maurice.libes@osupytheas.fr, didier.mallarino@osupytheas.fr
Project:EMSO http://www.emso-fr.org/EMSO-France
Depth: 2436.0 m
Title:EMSO Ligure Ouest : Data MII capteur MICROCAT
DateTime_Computer,Latitude,Longitude,Temperature,Conductivity,Pressure,DateTime_Instrument
DateTime_Computer,Latitude,Longitude,degC,S m-1,dbar,DateTime_Instrument
2019-07-28T00:00:38Z,42.805,6.029,13.2953,4.59953,2469.867,2019-7-28T02:00:57Z
2019-07-28T00:03:41Z,42.805,6.029,13.2958,4.59952,2469.844,2019-7-28T02:04:00Z
2019-07-28T00:06:44Z,42.805,6.029,13.2958,4.59953,2469.844,2019-7-28T02:07:03Z
2019-07-28T00:09:47Z,42.805,6.029,13.2957,4.59952,2469.806,2019-7-28T02:10:07Z
2019-07-28T00:12:51Z,42.805,6.029,13.2956,4.59952,2469.83,2019-7-28T02:13:10Z
2019-07-28T00:15:54Z,42.805,6.029,13.2956,4.59952,2469.83,2019-7-28T02:16:13Z
2019-07-28T00:18:57Z,42.805,6.029,13.2958,4.59953,2469.867,2019-7-28T02:19:16Z
2019-07-28T00:22:00Z,42.805,6.029,13.2956,4.59953,2469.853,2019-7-28T02:22:19Z
2019-07-28T00:25:03Z,42.805,6.029,13.2955,4.59951,2469.83,2019-7-28T02:25:23Z
2019-07-28T00:28:07Z,42.805,6.029,13.2957,4.59952,2469.876,2019-7-28T02:28:26Z
2019-07-28T00:31:10Z,42.805,6.029,13.2957,4.59952,2469.867,2019-7-28T02:31:29Z
2019-07-28T00:34:13Z,42.805,6.029,13.2956,4.59952,2469.83,2019-7-28T02:34:32Z
2019-07-28T00:37:16Z,42.805,6.029,13.2955,4.59953,2469.867,2019-7-28T02:37:35Z
2019-07-28T00:40:19Z,42.805,6.029,13.2956,4.59953,2469.853,2019-7-28T02:40:39Z
2019-07-28T00:43:22Z,42.805,6.029,13.2953,4.59952,2469.867,2019-7-28T02:43:42Z
2019-07-28T00:46:26Z,42.805,6.029,13.2957,4.59953,2469.89,2019-7-28T02:46:45Z
2019-07-28T00:49:29Z,42.805,6.029,13.2953,4.59954,2469.853,2019-7-28T02:49:48Z
2019-07-28T00:52:32Z,42.805,6.029,13.2956,4.59953,2469.853,2019-7-28T02:52:51Z
2019-07-28T00:55:35Z,42.805,6.029,13.2957,4.59954,2469.844,2019-7-28T02:55:55Z
2019-07-28T00:58:39Z,42.805,6.029,13.2956,4.59952,2469.853,2019-7-28T02:58:58Z
2019-07-28T01:01:42Z,42.805,6.029,13.2952,4.59951,2469.867,2019-7-28T03:02:01Z
2019-07-28T01:04:45Z,42.805,6.029,13.2957,4.59954,2469.83,2019-7-28T03:05:04Z
2019-07-28T01:07:48Z,42.805,6.029,13.2959,4.59954,2469.853,2019-7-28T03:08:07Z
2019-07-28T01:10:51Z,42.805,6.029,13.2957,4.59953,2469.876,2019-7-28T03:11:11Z
2019-07-28T01:13:54Z,42.805,6.029,13.2953,4.59953,2469.853,2019-7-28T03:14:14Z
2019-07-28T01:16:58Z,42.805,6.029,13.2957,4.59953,2469.83,2019-7-28T03:17:17Z
2019-07-28T01:20:01Z,42.805,6.029,13.2952,4.59952,2469.876,2019-7-28T03:20:20Z
2019-07-28T01:23:04Z,42.805,6.029,13.2954,4.59954,2469.853,2019-7-28T03:23:24Z
2019-07-28T01:26:07Z,42.805,6.029,13.2957,4.59953,2469.89,2019-7-28T03:26:27Z
2019-07-28T01:29:11Z,42.805,6.029,13.2952,4.59953,2469.853,2019-7-28T03:29:30Z
2019-07-28T01:32:14Z,42.805,6.029,13.2953,4.59951,2469.867,2019-7-28T03:32:33Z
2019-07-28T01:35:17Z,42.805,6.029,13.2956,4.59953,2469.89,2019-7-28T03:35:36Z
2019-07-28T01:38:20Z,42.805,6.029,13.2957,4.59955,2469.876,2019-7-28T03:38:39Z
2019-07-28T01:41:23Z,42.805,6.029,13.2958,4.59954,2469.876,2019-7-28T03:41:43Z
2019-07-28T01:44:27Z,42.805,6.029,13.2952,4.59953,2469.89,2019-7-28T03:44:46Z
2019-07-28T01:47:30Z,42.805,6.029,13.2957,4.59954,2469.853,2019-7-28T03:47:49Z
2019-07-28T01:50:33Z,42.805,6.029,13.2957,4.59953,2469.876,2019-7-28T03:50:52Z
2019-07-28T01:53:36Z,42.805,6.029,13.2952,4.59954,2469.867,2019-7-28T03:53:56Z
2019-07-28T01:56:39Z,42.805,6.029,13.2957,4.59953,2469.853,2019-7-28T03:56:59Z
2019-07-28T01:59:43Z,42.805,6.029,13.2957,4.59953,2469.876,2019-7-28T04:00:02Z
2019-07-28T02:02:46Z,42.805,6.029,13.2957,4.59958,2469.853,2019-7-28T04:03:05Z
2019-07-28T02:05:49Z,42.805,6.029,13.2958,4.59954,2469.89,2019-7-28T04:06:08Z
2019-07-28T02:08:52Z,42.805,6.029,13.2953,4.59955,2469.867,2019-7-28T04:09:11Z
2019-07-28T02:11:55Z,42.805,6.029,13.2958,4.59956,2469.876,2019-7-28T04:12:15Z
2019-07-28T02:14:59Z,42.805,6.029,13.2956,4.59954,2469.867,2019-7-28T04:15:18Z
2019-07-28T02:18:02Z,42.805,6.029,13.2957,4.59955,2469.9,2019-7-28T04:18:21Z
2019-07-28T02:21:05Z,42.805,6.029,13.2953,4.59954,2469.853,2019-7-28T04:21:24Z
2019-07-28T02:24:08Z,42.805,6.029,13.2954,4.59955,2469.914,2019-7-28T04:24:27Z
2019-07-28T02:27:11Z,42.805,6.029,13.2954,4.59954,2469.89,2019-7-28T04:27:31Z
2019-07-28T02:30:14Z,42.805,6.029,13.2954,4.59956,2469.853,2019-7-28T04:30:34Z
2019-07-28T02:33:18Z,42.805,6.029,13.2953,4.59954,2469.867,2019-7-28T04:33:37Z
2019-07-28T02:36:21Z,42.805,6.029,13.2957,4.59953,2469.83,2019-7-28T04:36:40Z
2019-07-28T02:39:24Z,42.805,6.029,13.2956,4.59954,2469.876,2019-7-28T04:39:43Z
2019-07-28T02:42:27Z,42.805,6.029,13.2955,4.59954,2469.863,2019-7-28T04:42:47Z
2019-07-28T02:45:30Z,42.805,6.029,13.2958,4.59955,2469.876,2019-7-28T04:45:50Z
2019-07-28T02:48:34Z,42.805,6.029,13.2956,4.59955,2469.853,2019-7-28T04:48:53Z
2019-07-28T02:51:37Z,42.805,6.029,13.2952,4.59954,2469.89,2019-7-28T04:51:56Z
2019-07-28T02:54:40Z,42.805,6.029,13.2953,4.59953,2469.876,2019-7-28T04:54:59Z
2019-07-28T02:57:43Z,42.805,6.029,13.2956,4.59956,2469.876,2019-7-28T04:58:03Z
2019-07-28T03:00:47Z,42.805,6.029,13.2953,4.59956,2469.867,2019-7-28T05:01:06Z
2019-07-28T03:03:50Z,42.805,6.029,13.2957,4.59956,2469.9,2019-7-28T05:04:09Z
2019-07-28T03:06:53Z,42.805,6.029,13.2958,4.59956,2469.9,2019-7-28T05:07:12Z
2019-07-28T03:09:56Z,42.805,6.029,13.2955,4.59955,2469.876,2019-7-28T05:10:15Z
2019-07-28T03:12:59Z,42.805,6.029,13.2953,4.59954,2469.914,2019-7-28T05:13:19Z
2019-07-28T03:16:03Z,42.805,6.029,13.2958,4.59954,2469.876,2019-7-28T05:16:22Z
2019-07-28T03:19:06Z,42.805,6.029,13.2957,4.59954,2469.853,2019-7-28T05:19:26Z
2019-07-28T03:22:09Z,42.805,6.029,13.2955,4.59956,2469.876,2019-7-28T05:22:29Z
2019-07-28T03:25:13Z,42.805,6.029,13.2958,4.59954,2469.9,2019-7-28T05:25:32Z
2019-07-28T03:28:16Z,42.805,6.029,13.2956,4.59955,2469.923,2019-7-28T05:28:35Z
2019-07-28T03:31:19Z,42.805,6.029,13.2959,4.59955,2469.876,2019-7-28T05:31:38Z
2019-07-28T03:34:22Z,42.805,6.029,13.2952,4.59954,2469.853,2019-7-28T05:34:41Z
2019-07-28T03:37:25Z,42.805,6.029,13.2957,4.59955,2469.876,2019-7-28T05:37:45Z
2019-07-28T03:40:29Z,42.805,6.029,13.2958,4.59955,2469.9,2019-7-28T05:40:48Z
2019-07-28T03:43:32Z,42.805,6.029,13.2955,4.59955,2469.9,2019-7-28T05:43:51Z
2019-07-28T03:46:35Z,42.805,6.029,13.2955,4.59956,2469.89,2019-7-28T05:46:54Z
2019-07-28T03:49:38Z,42.805,6.029,13.2952,4.59955,2469.89,2019-7-28T05:49:58Z
2019-07-28T03:52:41Z,42.805,6.029,13.2955,4.59954,2469.914,2019-7-28T05:53:01Z
2019-07-28T03:55:45Z,42.805,6.029,13.2955,4.59956,2469.89,2019-7-28T05:56:04Z
2019-07-28T03:58:48Z,42.805,6.029,13.2961,4.59954,2469.876,2019-7-28T05:59:07Z
2019-07-28T04:01:51Z,42.805,6.029,13.2957,4.59954,2469.914,2019-7-28T06:02:10Z
2019-07-28T04:04:54Z,42.805,6.029,13.2958,4.59957,2469.876,2019-7-28T06:05:13Z
2019-07-28T04:07:57Z,42.805,6.029,13.2957,4.59956,2469.9,2019-7-28T06:08:17Z
2019-07-28T04:11:01Z,42.805,6.029,13.2953,4.59955,2469.89,2019-7-28T06:11:20Z
2019-07-28T04:14:04Z,42.805,6.029,13.2960,4.59956,2469.863,2019-7-28T06:14:23Z
2019-07-28T04:17:07Z,42.805,6.029,13.2953,4.59955,2469.89,2019-7-28T06:17:26Z
2019-07-28T04:20:10Z,42.805,6.029,13.2958,4.59956,2469.923,2019-7-28T06:20:29Z
2019-07-28T04:23:13Z,42.805,6.029,13.2956,4.59954,2469.9,2019-7-28T06:23:33Z
2019-07-28T04:26:16Z,42.805,6.029,13.2955,4.59955,2469.89,2019-7-28T06:26:36Z
2019-07-28T04:29:20Z,42.805,6.029,13.2953,4.59955,2469.853,2019-7-28T06:29:39Z
2019-07-28T04:32:23Z,42.805,6.029,13.2958,4.59954,2469.876,2019-7-28T06:32:42Z
2019-07-28T04:35:26Z,42.805,6.029,13.2955,4.59954,2469.89,2019-7-28T06:35:46Z
2019-07-28T04:38:29Z,42.805,6.029,13.2956,4.59954,2469.923,2019-7-28T06:38:49Z
2019-07-28T04:41:33Z,42.805,6.029,13.2958,4.59954,2469.886,2019-7-28T06:41:52Z
2019-07-28T04:44:36Z,42.805,6.029,13.2954,4.59954,2469.853,2019-7-28T06:44:55Z
2019-07-28T04:47:39Z,42.805,6.029,13.2950,4.59956,2469.876,2019-7-28T06:47:58Z
2019-07-28T04:50:42Z,42.805,6.029,13.2958,4.59955,2469.853,2019-7-28T06:51:02Z
2019-07-28T04:53:45Z,42.805,6.029,13.2957,4.59955,2469.914,2019-7-28T06:54:05Z
2019-07-28T04:56:49Z,42.805,6.029,13.2954,4.59954,2469.853,2019-7-28T06:57:08Z
2019-07-28T04:59:52Z,42.805,6.029,13.2958,4.59954,2469.9,2019-7-28T07:00:11Z
2019-07-28T05:02:55Z,42.805,6.029,13.2957,4.59956,2469.923,2019-7-28T07:03:14Z
2019-07-28T05:05:58Z,42.805,6.029,13.2957,4.59954,2469.914,2019-7-28T07:06:18Z
2019-07-28T05:09:01Z,42.805,6.029,13.2959,4.59954,2469.89,2019-7-28T07:09:21Z
2019-07-28T05:12:05Z,42.805,6.029,13.2954,4.59954,2469.853,2019-7-28T07:12:24Z
2019-07-28T05:15:08Z,42.805,6.029,13.2957,4.59954,2469.914,2019-7-28T07:15:27Z
2019-07-28T05:18:11Z,42.805,6.029,13.2952,4.59954,2469.9,2019-7-28T07:18:30Z
2019-07-28T05:21:14Z,42.805,6.029,13.2958,4.59956,2469.83,2019-7-28T07:21:34Z
2019-07-28T05:24:17Z,42.805,6.029,13.2953,4.59954,2469.89,2019-7-28T07:24:37Z
2019-07-28T05:27:21Z,42.805,6.029,13.2954,4.59955,2469.867,2019-7-28T07:27:40Z
2019-07-28T05:30:24Z,42.805,6.029,13.2953,4.59954,2469.914,2019-7-28T07:30:43Z
2019-07-28T05:33:27Z,42.805,6.029,13.2953,4.59953,2469.914,2019-7-28T07:33:46Z
2019-07-28T05:36:30Z,42.805,6.029,13.2956,4.59953,2469.853,2019-7-28T07:36:50Z
2019-07-28T05:39:33Z,42.805,6.029,13.2956,4.59954,2469.9,2019-7-28T07:39:53Z
2019-07-28T05:42:37Z,42.805,6.029,13.2957,4.59954,2469.867,2019-7-28T07:42:56Z
2019-07-28T05:45:40Z,42.805,6.029,13.2954,4.59954,2469.83,2019-7-28T07:45:59Z
2019-07-28T05:48:43Z,42.805,6.029,13.2955,4.59954,2469.853,2019-7-28T07:49:02Z
2019-07-28T05:51:46Z,42.805,6.029,13.2952,4.59954,2469.9,2019-7-28T07:52:06Z
2019-07-28T05:54:49Z,42.805,6.029,13.2954,4.59955,2469.853,2019-7-28T07:55:09Z
2019-07-28T05:57:53Z,42.805,6.029,13.2957,4.59953,2469.83,2019-7-28T07:58:12Z
2019-07-28T06:00:56Z,42.805,6.029,13.2954,4.59954,2469.867,2019-7-28T08:01:15Z
2019-07-28T06:03:59Z,42.805,6.029,13.2957,4.59954,2469.867,2019-7-28T08:04:18Z
2019-07-28T06:07:02Z,42.805,6.029,13.2954,4.59953,2469.853,2019-7-28T08:07:21Z
2019-07-28T06:10:05Z,42.805,6.029,13.2959,4.59954,2469.867,2019-7-28T08:10:25Z
2019-07-28T06:13:09Z,42.805,6.029,13.2957,4.59952,2469.844,2019-7-28T08:13:28Z
2019-07-28T06:16:12Z,42.805,6.029,13.2958,4.59953,2469.83,2019-7-28T08:16:31Z
2019-07-28T06:19:15Z,42.805,6.029,13.2956,4.59953,2469.867,2019-7-28T08:19:34Z
2019-07-28T06:22:18Z,42.805,6.029,13.2958,4.59953,2469.89,2019-7-28T08:22:38Z
2019-07-28T06:25:21Z,42.805,6.029,13.2954,4.59952,2469.806,2019-7-28T08:25:41Z
2019-07-28T06:28:25Z,42.805,6.029,13.2954,4.59954,2469.83,2019-7-28T08:28:44Z
2019-07-28T06:31:28Z,42.805,6.029,13.2956,4.59953,2469.83,2019-7-28T08:31:47Z
2019-07-28T06:34:31Z,42.805,6.029,13.2953,4.59954,2469.876,2019-7-28T08:34:50Z
2019-07-28T06:37:34Z,42.805,6.029,13.2957,4.59953,2469.821,2019-7-28T08:37:54Z
2019-07-28T06:40:37Z,42.805,6.029,13.2957,4.59954,2469.783,2019-7-28T08:40:57Z
2019-07-28T06:43:41Z,42.805,6.029,13.2957,4.59954,2469.783,2019-7-28T08:44:00Z
2019-07-28T06:46:44Z,42.805,6.029,13.2956,4.59953,2469.853,2019-7-28T08:47:03Z
2019-07-28T06:49:47Z,42.805,6.029,13.2957,4.59954,2469.783,2019-7-28T08:50:06Z
2019-07-28T06:52:50Z,42.805,6.029,13.2955,4.59954,2469.83,2019-7-28T08:53:09Z
2019-07-28T06:55:53Z,42.805,6.029,13.2953,4.59955,2469.844,2019-7-28T08:56:13Z
2019-07-28T06:58:57Z,42.805,6.029,13.2959,4.59952,2469.783,2019-7-28T08:59:16Z
2019-07-28T07:02:00Z,42.805,6.029,13.2952,4.59954,2469.83,2019-7-28T09:02:19Z
2019-07-28T07:05:03Z,42.805,6.029,13.2952,4.59953,2469.83,2019-7-28T09:05:22Z
2019-07-28T07:08:06Z,42.805,6.029,13.2955,4.59952,2469.806,2019-7-28T09:08:25Z
2019-07-28T07:11:09Z,42.805,6.029,13.2953,4.59953,2469.83,2019-7-28T09:11:29Z
2019-07-28T07:14:12Z,42.805,6.029,13.2953,4.59954,2469.797,2019-7-28T09:14:32Z
2019-07-28T07:17:16Z,42.805,6.029,13.2952,4.59954,2469.793,2019-7-28T09:17:35Z
2019-07-28T07:20:19Z,42.805,6.029,13.2954,4.59952,2469.797,2019-7-28T09:20:38Z
2019-07-28T07:23:22Z,42.805,6.029,13.2959,4.59953,2469.821,2019-7-28T09:23:41Z
2019-07-28T07:26:25Z,42.805,6.029,13.2955,4.59952,2469.83,2019-7-28T09:26:45Z
2019-07-28T07:29:28Z,42.805,6.029,13.2958,4.59954,2469.806,2019-7-28T09:29:48Z
2019-07-28T07:32:32Z,42.805,6.029,13.2953,4.59954,2469.821,2019-7-28T09:32:51Z
2019-07-28T07:35:35Z,42.805,6.029,13.2953,4.59954,2469.844,2019-7-28T09:35:54Z
2019-07-28T07:38:38Z,42.805,6.029,13.2958,4.59954,2469.83,2019-7-28T09:38:57Z
2019-07-28T07:41:41Z,42.805,6.029,13.2957,4.59954,2469.783,2019-7-28T09:42:01Z
2019-07-28T07:44:44Z,42.805,6.029,13.2960,4.59954,2469.783,2019-7-28T09:45:04Z
2019-07-28T07:47:48Z,42.805,6.029,13.2958,4.59952,2469.76,2019-7-28T09:48:07Z
2019-07-28T07:50:51Z,42.805,6.029,13.2957,4.59955,2469.821,2019-7-28T09:51:10Z
2019-07-28T07:53:54Z,42.805,6.029,13.2958,4.59954,2469.769,2019-7-28T09:54:13Z
2019-07-28T07:56:57Z,42.805,6.029,13.2953,4.59952,2469.806,2019-7-28T09:57:17Z
2019-07-28T08:00:01Z,42.805,6.029,13.2953,4.59952,2469.797,2019-7-28T10:00:20Z
2019-07-28T08:03:04Z,42.805,6.029,13.2956,4.59954,2469.773,2019-7-28T10:03:23Z
2019-07-28T08:06:07Z,42.805,6.029,13.2953,4.59952,2469.783,2019-7-28T10:06:26Z
2019-07-28T08:09:10Z,42.805,6.029,13.2954,4.59952,2469.83,2019-7-28T10:09:29Z
2019-07-28T08:12:13Z,42.805,6.029,13.2952,4.59952,2469.806,2019-7-28T10:12:33Z
2019-07-28T08:15:16Z,42.805,6.029,13.2953,4.59952,2469.821,2019-7-28T10:15:36Z
2019-07-28T08:18:20Z,42.805,6.029,13.2955,4.59952,2469.76,2019-7-28T10:18:39Z
2019-07-28T08:21:23Z,42.805,6.029,13.2953,4.59952,2469.806,2019-7-28T10:21:42Z
2019-07-28T08:24:26Z,42.805,6.029,13.2956,4.59954,2469.773,2019-7-28T10:24:45Z
2019-07-28T08:27:29Z,42.805,6.029,13.2954,4.59952,2469.76,2019-7-28T10:27:49Z
2019-07-28T08:30:32Z,42.805,6.029,13.2953,4.59953,2469.773,2019-7-28T10:30:52Z
2019-07-28T08:33:36Z,42.805,6.029,13.2958,4.59952,2469.797,2019-7-28T10:33:55Z
2019-07-28T08:36:39Z,42.805,6.029,13.2958,4.59952,2469.76,2019-7-28T10:36:58Z
2019-07-28T08:39:42Z,42.805,6.029,13.2958,4.59952,2469.797,2019-7-28T10:40:01Z
2019-07-28T08:42:45Z,42.805,6.029,13.2955,4.59954,2469.773,2019-7-28T10:43:05Z
2019-07-28T08:45:48Z,42.805,6.029,13.2954,4.59954,2469.773,2019-7-28T10:46:08Z
2019-07-28T08:48:52Z,42.805,6.029,13.2953,4.59952,2469.75,2019-7-28T10:49:11Z
2019-07-28T08:51:55Z,42.805,6.029,13.2953,4.59952,2469.783,2019-7-28T10:52:14Z
2019-07-28T08:54:58Z,42.805,6.029,13.2951,4.59951,2469.737,2019-7-28T10:55:17Z
2019-07-28T08:58:01Z,42.805,6.029,13.2957,4.59952,2469.783,2019-7-28T10:58:21Z
2019-07-28T09:01:04Z,42.805,6.029,13.2952,4.59952,2469.76,2019-7-28T11:01:24Z
2019-07-28T09:04:08Z,42.805,6.029,13.2954,4.59952,2469.737,2019-7-28T11:04:27Z
2019-07-28T09:07:11Z,42.805,6.029,13.2954,4.59952,2469.713,2019-7-28T11:07:30Z
2019-07-28T09:10:14Z,42.805,6.029,13.2956,4.59951,2469.76,2019-7-28T11:10:33Z
2019-07-28T09:13:17Z,42.805,6.029,13.2955,4.59952,2469.737,2019-7-28T11:13:37Z
2019-07-28T09:16:20Z,42.805,6.029,13.2951,4.59952,2469.75,2019-7-28T11:16:40Z
2019-07-28T09:19:24Z,42.805,6.029,13.2955,4.59953,2469.76,2019-7-28T11:19:43Z
2019-07-28T09:22:27Z,42.805,6.029,13.2957,4.59952,2469.737,2019-7-28T11:22:46Z
2019-07-28T09:25:30Z,42.805,6.029,13.2957,4.59952,2469.75,2019-7-28T11:25:49Z
2019-07-28T09:28:33Z,42.805,6.029,13.2953,4.59952,2469.783,2019-7-28T11:28:53Z
2019-07-28T09:31:37Z,42.805,6.029,13.2958,4.59951,2469.76,2019-7-28T11:31:56Z
2019-07-28T09:34:40Z,42.805,6.029,13.2957,4.59953,2469.737,2019-7-28T11:34:59Z
2019-07-28T09:37:43Z,42.805,6.029,13.2955,4.59952,2469.76,2019-7-28T11:38:02Z
2019-07-28T09:40:46Z,42.805,6.029,13.2954,4.59953,2469.75,2019-7-28T11:41:05Z
2019-07-28T09:43:49Z,42.805,6.029,13.2957,4.59953,2469.797,2019-7-28T11:44:09Z
2019-07-28T09:46:53Z,42.805,6.029,13.2955,4.59951,2469.75,2019-7-28T11:47:12Z
2019-07-28T09:49:56Z,42.805,6.029,13.2956,4.59952,2469.737,2019-7-28T11:50:15Z
2019-07-28T09:52:59Z,42.805,6.029,13.2953,4.59952,2469.773,2019-7-28T11:53:18Z
2019-07-28T09:56:02Z,42.805,6.029,13.2953,4.59953,2469.76,2019-7-28T11:56:22Z
2019-07-28T09:59:06Z,42.805,6.029,13.2953,4.59952,2469.75,2019-7-28T11:59:25Z
2019-07-28T10:02:09Z,42.805,6.029,13.2953,4.59952,2469.797,2019-7-28T12:02:28Z
2019-07-28T10:05:12Z,42.805,6.029,13.2960,4.59951,2469.773,2019-7-28T12:05:31Z
2019-07-28T10:08:15Z,42.805,6.029,13.2956,4.59953,2469.75,2019-7-28T12:08:34Z
2019-07-28T10:11:18Z,42.805,6.029,13.2952,4.59952,2469.783,2019-7-28T12:11:38Z
2019-07-28T10:14:21Z,42.805,6.029,13.2957,4.59951,2469.713,2019-7-28T12:14:41Z
2019-07-28T10:17:25Z,42.805,6.029,13.2957,4.59953,2469.773,2019-7-28T12:17:44Z
2019-07-28T10:20:28Z,42.805,6.029,13.2951,4.59951,2469.737,2019-7-28T12:20:47Z
2019-07-28T10:23:31Z,42.805,6.029,13.2957,4.59952,2469.773,2019-7-28T12:23:50Z
2019-07-28T10:26:34Z,42.805,6.029,13.2957,4.59953,2469.76,2019-7-28T12:26:54Z
2019-07-28T10:29:37Z,42.805,6.029,13.2955,4.59952,2469.773,2019-7-28T12:29:57Z
2019-07-28T10:32:41Z,42.805,6.029,13.2956,4.59954,2469.737,2019-7-28T12:33:00Z
2019-07-28T10:35:44Z,42.805,6.029,13.2957,4.59953,2469.75,2019-7-28T12:36:04Z
2019-07-28T10:38:47Z,42.805,6.029,13.2954,4.59952,2469.76,2019-7-28T12:39:07Z
2019-07-28T10:41:51Z,42.805,6.029,13.2955,4.59953,2469.75,2019-7-28T12:42:10Z
2019-07-28T10:44:54Z,42.805,6.029,13.2957,4.59954,2469.76,2019-7-28T12:45:14Z
2019-07-28T10:47:57Z,42.805,6.029,13.2957,4.59954,2469.773,2019-7-28T12:48:17Z
2019-07-28T10:51:01Z,42.805,6.029,13.2955,4.59951,2469.737,2019-7-28T12:51:20Z
2019-07-28T10:54:04Z,42.805,6.029,13.2952,4.59953,2469.773,2019-7-28T12:54:23Z
2019-07-28T10:57:07Z,42.805,6.029,13.2954,4.59953,2469.773,2019-7-28T12:57:26Z
2019-07-28T11:00:10Z,42.805,6.029,13.2955,4.59953,2469.713,2019-7-28T13:00:30Z
2019-07-28T11:03:13Z,42.805,6.029,13.2954,4.59952,2469.75,2019-7-28T13:03:33Z
2019-07-28T11:06:17Z,42.805,6.029,13.2954,4.59953,2469.773,2019-7-28T13:06:36Z
2019-07-28T11:09:20Z,42.805,6.029,13.2957,4.59952,2469.737,2019-7-28T13:09:39Z
2019-07-28T11:12:23Z,42.805,6.029,13.2953,4.59952,2469.76,2019-7-28T13:12:42Z
2019-07-28T11:15:26Z,42.805,6.029,13.2952,4.59951,2469.773,2019-7-28T13:15:46Z
2019-07-28T11:18:29Z,42.805,6.029,13.2958,4.59953,2469.773,2019-7-28T13:18:49Z
2019-07-28T11:21:33Z,42.805,6.029,13.2956,4.59954,2469.76,2019-7-28T13:21:52Z
2019-07-28T11:24:36Z,42.805,6.029,13.2956,4.59952,2469.797,2019-7-28T13:24:55Z
2019-07-28T11:27:39Z,42.805,6.029,13.2957,4.59952,2469.76,2019-7-28T13:27:58Z
2019-07-28T11:30:42Z,42.805,6.029,13.2954,4.59953,2469.737,2019-7-28T13:31:02Z
2019-07-28T11:33:45Z,42.805,6.029,13.2957,4.59951,2469.737,2019-7-28T13:34:05Z
2019-07-28T11:36:49Z,42.805,6.029,13.2957,4.59952,2469.783,2019-7-28T13:37:08Z
2019-07-28T11:39:52Z,42.805,6.029,13.2953,4.59954,2469.737,2019-7-28T13:40:11Z
2019-07-28T11:42:55Z,42.805,6.029,13.2957,4.59954,2469.783,2019-7-28T13:43:14Z
2019-07-28T11:45:58Z,42.805,6.029,13.2959,4.59954,2469.773,2019-7-28T13:46:18Z
2019-07-28T11:49:01Z,42.805,6.029,13.2958,4.59953,2469.773,2019-7-28T13:49:21Z
2019-07-28T11:52:05Z,42.805,6.029,13.2957,4.59952,2469.76,2019-7-28T13:52:24Z
2019-07-28T11:55:08Z,42.805,6.029,13.2952,4.59951,2469.773,2019-7-28T13:55:27Z
2019-07-28T11:58:11Z,42.805,6.029,13.2957,4.59953,2469.737,2019-7-28T13:58:30Z
2019-07-28T12:01:14Z,42.805,6.029,13.2957,4.59953,2469.737,2019-7-28T14:01:34Z
2019-07-28T12:04:17Z,42.805,6.029,13.2952,4.59952,2469.773,2019-7-28T14:04:37Z
2019-07-28T12:07:21Z,42.805,6.029,13.2954,4.59954,2469.773,2019-7-28T14:07:40Z
2019-07-28T12:10:24Z,42.805,6.029,13.2957,4.59953,2469.783,2019-7-28T14:10:43Z
2019-07-28T12:13:27Z,42.805,6.029,13.2957,4.59954,2469.773,2019-7-28T14:13:46Z
2019-07-28T12:16:30Z,42.805,6.029,13.2957,4.59952,2469.773,2019-7-28T14:16:49Z
2019-07-28T12:19:33Z,42.805,6.029,13.2957,4.59953,2469.76,2019-7-28T14:19:53Z
2019-07-28T12:22:37Z,42.805,6.029,13.2958,4.59952,2469.783,2019-7-28T14:22:56Z
2019-07-28T12:25:40Z,42.805,6.029,13.2956,4.59952,2469.783,2019-7-28T14:25:59Z
2019-07-28T12:28:43Z,42.805,6.029,13.2953,4.59955,2469.737,2019-7-28T14:29:02Z
2019-07-28T12:31:46Z,42.805,6.029,13.2953,4.59952,2469.783,2019-7-28T14:32:05Z
2019-07-28T12:34:49Z,42.805,6.029,13.2953,4.59953,2469.773,2019-7-28T14:35:09Z
2019-07-28T12:37:52Z,42.805,6.029,13.2958,4.59952,2469.811,2019-7-28T14:38:12Z
2019-07-28T12:40:56Z,42.805,6.029,13.2955,4.59954,2469.76,2019-7-28T14:41:15Z
2019-07-28T12:43:59Z,42.805,6.029,13.2958,4.59953,2469.83,2019-7-28T14:44:18Z
2019-07-28T12:47:02Z,42.805,6.029,13.2954,4.59952,2469.783,2019-7-28T14:47:21Z
2019-07-28T12:50:05Z,42.805,6.029,13.2956,4.59954,2469.806,2019-7-28T14:50:25Z
2019-07-28T12:53:08Z,42.805,6.029,13.2958,4.59952,2469.797,2019-7-28T14:53:28Z
2019-07-28T12:56:12Z,42.805,6.029,13.2959,4.59953,2469.806,2019-7-28T14:56:31Z
2019-07-28T12:59:15Z,42.805,6.029,13.2953,4.59953,2469.783,2019-7-28T14:59:34Z
2019-07-28T13:02:18Z,42.805,6.029,13.2954,4.59953,2469.821,2019-7-28T15:02:37Z
2019-07-28T13:05:21Z,42.805,6.029,13.2956,4.59953,2469.821,2019-7-28T15:05:41Z
2019-07-28T13:08:24Z,42.805,6.029,13.2957,4.59952,2469.83,2019-7-28T15:08:44Z
2019-07-28T13:11:28Z,42.805,6.029,13.2953,4.59952,2469.806,2019-7-28T15:11:47Z
2019-07-28T13:14:31Z,42.805,6.029,13.2953,4.59952,2469.806,2019-7-28T15:14:50Z
2019-07-28T13:17:34Z,42.805,6.029,13.2955,4.59952,2469.797,2019-7-28T15:17:53Z
2019-07-28T13:20:37Z,42.805,6.029,13.2953,4.59953,2469.76,2019-7-28T15:20:57Z
2019-07-28T13:23:40Z,42.805,6.029,13.2958,4.59958,2469.806,2019-7-28T15:24:00Z
2019-07-28T13:26:44Z,42.805,6.029,13.2955,4.59954,2469.806,2019-7-28T15:27:03Z
2019-07-28T13:29:47Z,42.805,6.029,13.2956,4.59952,2469.821,2019-7-28T15:30:06Z
2019-07-28T13:32:50Z,42.805,6.029,13.2955,4.59953,2469.783,2019-7-28T15:33:09Z
2019-07-28T13:35:53Z,42.805,6.029,13.2957,4.59954,2469.844,2019-7-28T15:36:13Z
2019-07-28T13:38:56Z,42.805,6.029,13.2957,4.59952,2469.83,2019-7-28T15:39:16Z
2019-07-28T13:42:00Z,42.805,6.029,13.2955,4.59953,2469.844,2019-7-28T15:42:19Z
2019-07-28T13:45:03Z,42.805,6.029,13.2954,4.59951,2469.844,2019-7-28T15:45:22Z
2019-07-28T13:48:06Z,42.805,6.029,13.2953,4.59954,2469.83,2019-7-28T15:48:25Z
2019-07-28T13:51:09Z,42.805,6.029,13.2954,4.59952,2469.806,2019-7-28T15:51:29Z
2019-07-28T13:54:12Z,42.805,6.029,13.2953,4.59952,2469.844,2019-7-28T15:54:32Z
2019-07-28T13:57:16Z,42.805,6.029,13.2953,4.59952,2469.83,2019-7-28T15:57:35Z
2019-07-28T14:00:19Z,42.805,6.029,13.2953,4.59951,2469.844,2019-7-28T16:00:38Z
2019-07-28T14:03:22Z,42.805,6.029,13.2957,4.59953,2469.83,2019-7-28T16:03:41Z
2019-07-28T14:06:25Z,42.805,6.029,13.2953,4.59951,2469.821,2019-7-28T16:06:45Z
2019-07-28T14:09:28Z,42.805,6.029,13.2956,4.59952,2469.844,2019-7-28T16:09:48Z
2019-07-28T14:12:31Z,42.805,6.029,13.2956,4.59952,2469.806,2019-7-28T16:12:51Z
2019-07-28T14:15:35Z,42.805,6.029,13.2954,4.59952,2469.876,2019-7-28T16:15:54Z
2019-07-28T14:18:38Z,42.805,6.029,13.2953,4.59952,2469.853,2019-7-28T16:18:57Z
2019-07-28T14:21:41Z,42.805,6.029,13.2952,4.59952,2469.844,2019-7-28T16:22:00Z
2019-07-28T14:24:44Z,42.805,6.029,13.2956,4.59953,2469.83,2019-7-28T16:25:04Z
2019-07-28T14:27:48Z,42.805,6.029,13.2954,4.59953,2469.853,2019-7-28T16:28:07Z
2019-07-28T14:30:51Z,42.805,6.029,13.2956,4.59953,2469.867,2019-7-28T16:31:10Z
2019-07-28T14:33:54Z,42.805,6.029,13.2953,4.59954,2469.853,2019-7-28T16:34:13Z
2019-07-28T14:36:57Z,42.805,6.029,13.2958,4.59954,2469.853,2019-7-28T16:37:16Z
2019-07-28T14:40:00Z,42.805,6.029,13.2957,4.59953,2469.867,2019-7-28T16:40:20Z
2019-07-28T14:43:04Z,42.805,6.029,13.2955,4.59953,2469.876,2019-7-28T16:43:23Z
2019-07-28T14:46:07Z,42.805,6.029,13.2956,4.59953,2469.83,2019-7-28T16:46:26Z
2019-07-28T14:49:10Z,42.805,6.029,13.2955,4.59951,2469.867,2019-7-28T16:49:29Z
2019-07-28T14:52:13Z,42.805,6.029,13.2953,4.59953,2469.853,2019-7-28T16:52:33Z
2019-07-28T14:55:16Z,42.805,6.029,13.2955,4.59952,2469.844,2019-7-28T16:55:36Z
2019-07-28T14:58:20Z,42.805,6.029,13.2953,4.59953,2469.853,2019-7-28T16:58:39Z
2019-07-28T15:01:23Z,42.805,6.029,13.2958,4.59955,2469.89,2019-7-28T17:01:42Z
2019-07-28T15:04:26Z,42.805,6.029,13.2956,4.59952,2469.876,2019-7-28T17:04:45Z
2019-07-28T15:07:29Z,42.805,6.029,13.2953,4.59952,2469.876,2019-7-28T17:07:49Z
2019-07-28T15:10:32Z,42.805,6.029,13.2958,4.59956,2469.844,2019-7-28T17:10:52Z
2019-07-28T15:13:36Z,42.805,6.029,13.2952,4.59954,2469.853,2019-7-28T17:13:55Z